Regional Weather Roundup
Issued by NWS

Home | Current Version | Previous Version | Text Only | Print | Product List | Glossary On
Versions: 1 2 3 4 5 6 7 8 9 10 11 12 13 14 15 16 17 18 19 20 21 22 23 24 25 26 27 28 29 30 31 32 33 34 35 36 37 38 39 40 41 42 43 44 45 46 47 48 49 50
000
ASUS43 KDTX 061610
RWRMI
MICHIGAN HOURLY REGIONAL WEATHER ROUNDUP
NATIONAL WEATHER SERVICE DETROIT/PONTIAC MI
1100 AM EST SAT FEB 06 2016

NOTE: "FAIR" INDICATES FEW OR NO CLOUDS BELOW 12,000 FEET WITH NO
SIGNIFICANT WEATHER AND/OR OBSTRUCTION TO VISIBILITY.

MIZ047>049-052>055-059>063-066>070-074>076-081>083-061700-
SOUTHEAST LOWER MICHIGAN

CITY           SKY/WX    TMP DP  RH WIND       PRES   REMARKS
ADRIAN         SUNNY     37  23  56 SW13      30.28F WCI  29
ALMA           SUNNY     33  26  75 SW16      30.20F WCI  22
ANN ARBOR      MOSUNNY   32  22  66 SW8       30.26F WCI  25
BAD AXE        CLOUDY    32  26  78 SW10G17   30.18F WCI  23
CARO           CLOUDY    33  27  80 SW14      30.20S WCI  23
DETROIT CITY   SUNNY     33  22  63 W8        30.27F WCI  26
DETROIT        MOSUNNY   34  22  61 SW9       30.28F WCI  27
FLINT          CLOUDY    34  23  64 SW10      30.23F WCI  26
GROSSE ILE     SUNNY     34  25  69 SW7       30.27F WCI  28
HILLSDALE      SUNNY     30  23  75 SW8       30.25S WCI  22
HOWELL         MOSUNNY   33  22  63 SW10      30.23F WCI  24

CITY           SKY/WX    TMP DP  RH WIND       PRES   REMARKS
JACKSON        SUNNY     32  22  66 SW12      30.25R WCI  23
LAMBERTVILLE   SUNNY     33  23  65 W8        30.29S WCI  26
LANSING        SUNNY     32  21  64 SW13      30.24S WCI  22
LAPEER         CLOUDY    32  24  73 W9        30.22F WCI  24
MASON          SUNNY     32  22  65 SW8       30.24S WCI  25
MONROE         SUNNY     33  25  73 SW9       30.28F WCI  25
MT. CLEMENS    PTSUNNY   34  24  66 SW13      30.25S WCI  25
PONTIAC        PTSUNNY   30  22  72 SW9       30.23S WCI  22
PORT HOPE        N/A     30  23  75 SW10G18   30.15F WCI  21
PORT HURON     PTSUNNY   32  23  69 SW7       30.25S WCI  26
TRI CITIES     CLOUDY    32  25  75 SW17      30.20F HAZE    WCI  21
MIDLAND        PTSUNNY   33  24  69 SW10      30.18F WCI  25
TROY           MOSUNNY   33  25  71 SW12      30.27S WCI  25
SAGINAW HB     CLOUDY    32  28  86 SW15      30.20F WCI  22
$$
MIZ043>046-050>051-056>058-064>065-071>073-077>080-061700-
SOUTHWEST LOWER MICHIGAN

CITY           SKY/WX    TMP DP  RH WIND       PRES   REMARKS
BATTLE CREEK   SUNNY     29  22  75 SW12      30.25S WCI  19
BENTON HARBOR  MOSUNNY   32  24  72 SW13G20   30.27F WCI  22
BIG RAPIDS     CLOUDY    32  21  64 SW15      30.15F WCI  22
COLDWATER      SUNNY     30  25  79 SW12      30.27S WCI  21
FREMONT        CLOUDY    33  20  60 SW10G17   30.18F WCI  24
HOLLAND        CLOUDY    33  26  75 SW20G30   30.24S WCI  21
GRAND RAPIDS   MOSUNNY   31  25  78 SW10      30.23S HAZE    WCI  22
IONIA          FAIR      32  26  78 SW17      30.21S WCI  21
KALAMAZOO      SUNNY     30  22  72 SW12      30.26S WCI  20
LUDINGTON      CLOUDY    32  25  76 SW13      30.17S WCI  22
MARSHALL       MOSUNNY   31  24  74 SW7       30.25S WCI  25
MOUNT PLEASANT SUNNY     33  23  66 SW10G16   30.17F WCI  25
MUSKEGON       CLOUDY    35  21  56 SW15      30.21F WCI  25
SOUTH HAVEN    CLOUDY    31  26  83 SW9       30.26S WCI  23
$$
MIZ016>042-061700-
NORTHERN LOWER MICHIGAN

CITY           SKY/WX    TMP DP  RH WIND       PRES   REMARKS
ALPENA         CLOUDY    30  21  69 SW13      30.09S WCI  20
BEAVER ISLAND  CLOUDY    29  24  79 W16       30.08S WCI  17
BELLAIRE       FLURRIES  30  26  84 W8        30.12S WCI  22
CADILLAC       FLURRIES  28  23  82 SW12      30.10S WCI  17
CHARLEVOIX     CLOUDY    30  25  83 W16       30.12S WCI  18
FRANKFORT      FLURRIES  30  25  79 W10G17    30.14S WCI  21
GAYLORD        LGT SNOW  27  23  85 W16       30.06S FOG     WCI  15
GRAYLING       CLOUDY    28  23  81 W12G20    30.10S WCI  18
HARBOR SPRINGS LGT SNOW  29  25  83 W13G22    30.08R WCI  19
HOUGHTON LAKE  CLOUDY    28  21  75 SW10      30.11F WCI  19
MANISTEE       CLOUDY    30  21  69 W9        30.16S WCI  22
OSCODA         CLOUDY    31  22  70 SW16G24   30.12F WCI  20
PELLSTON       LGT SNOW  29  23  78 W9        30.08R WCI  20
ROGERS CITY    FLURRIES  29  23  80 W13G18    30.08R WCI  18
TRAVERSE CITY  FLURRIES  30  24  78 W9        30.12S WCI  22
$$
MIZ007>008-015-061700-
EASTERN UPPER MICHIGAN

CITY           SKY/WX    TMP DP  RH WIND       PRES   REMARKS
KINROSS        CLOUDY    27  23  86 W8        30.03S WCI  18
MACKINAC ISLAN CLOUDY    28  23  84 W14       30.05S WCI  16
NEWBERRY       CLOUDY    25  19  80 SW13      30.04R WCI  13
S. S. MARIE    CLOUDY    26  20  77 SW14      30.01S WCI  14
MUNISING         N/A     28  18  66 W8        30.05R WCI  20
$$
MIZ004>006-011>014-085-061700-
CENTRAL UPPER MICHIGAN

CITY           SKY/WX    TMP DP  RH WIND       PRES   REMARKS
MANISTIQUE     CLOUDY    28  19  68 W8        30.07S WCI  20
ESCANABA       PTSUNNY   27  18  69 W12       30.10S WCI  16
MENOMINEE      CLOUDY    27  18  69 W5        30.12F WCI  21
SAWYER-GWINN   CLOUDY    23  19  86 W7        30.04R WCI  15
$$
MIZ001>003-009>011-084-061700-
WESTERN UPPER MICHIGAN

CITY           SKY/WX    TMP DP  RH WIND       PRES   REMARKS
IRON MOUNTAIN  CLOUDY    25  17  72 W8        30.06R HAZE    WCI  16
HOUGHTON       LGT SNOW  25  20  81 SW12      29.99S WCI  14
COPPER HARBOR    N/A     28  23  81 N9        30.01S WCI  19
IRONWOOD       MOSUNNY   25  19  80 SW10      30.01R WCI  15
$$

ABBREVIATIONS USED IN REMARKS
   TC - TEMPERATURE IN CELSIUS
  WCI - WIND CHILL INDEX
   HX - HEAT INDEX
  VSB - VISIBILITY




USA.gov is the U.S. government's official web portal to all federal, state and local government web resources and services.